Location: Katherine
(14.4670°S, 132.2670°E)
Time: 14:23:42
(UTC+09:30)

ISS - Pass Details

Date: 22 February 2018
Orbit: 402 x 407 km, 51.6° (Epoch: 23 February)

Event Time Altitude Azimuth Distance (km) Brightness Sun altitude
Exits shadow 05:40:26 28° 254° (WSW) 794 -2.8 -14.9°
Maximum altitude 05:41:41 42° 306° (NW) 585 -3.5 -14.6°
Drops below altitude 10° 05:44:48 10° 18° (NNE) 1,453 -1.0 -13.9°
Sets 05:46:55 0° 25° (NNE) 2,305 0.1 -13.4°
